Location: Zagreb
(45.8000°N, 16.0000°E)
Time: 18:24:32
(UTC+02:00)

A-11 Canister half - Pass Details

Date: 13 August 2022
Orbit: 1524 x 1684 km, 47.3° (Epoch: 05 October)

Event Time Altitude Azimuth Distance (km) Brightness Sun altitude
Rises 12:05:49 0° 293° (WNW) 4,937 11.4 56.7°
Reaches altitude 10° 12:09:07 10° 288° (WNW) 3,937 11.0 57.0°
Maximum altitude 12:18:41 51° 217° (SW) 2,004 10.8 57.6°
Drops below altitude 10° 12:27:59 10° 146° (SE) 3,822 11.7 58.0°
Sets 12:31:09 0° 141° (SE) 4,783 12.0 58.2°
